Location: Columbia
(38.9520°N, 92.3340°W)
Time: 19:12:16
(UTC-05:00)

Cosmos 1603 - Visible Passes

Search period start: 30 May 2016 00:00
Search period end: 09 June 2016 00:00
Orbit: 833 x 858 km, 71.0° (Epoch: 30 May)

Date Brightness Start Highest point End Pass type
(mag) Time Alt. Az. Time Alt. Az. Time Alt. Az.
30 May 6.5 22:31:43 10° W 22:35:32 18° NW 22:39:21 10° N visible
31 May 6.5 22:17:42 10° W 22:21:35 19° NW 22:25:30 10° N visible
01 Jun 6.5 22:03:42 10° W 22:07:40 19° NW 22:11:39 10° N visible
02 Jun 6.6 21:49:41 10° W 21:53:44 20° NW 21:57:48 10° N visible
03 Jun 6.5 04:59:51 10° N 05:04:22 24° NE 05:08:52 10° ESE visible
03 Jun 6.6 21:35:41 10° WSW 21:39:48 21° NW 21:43:57 10° N visible
04 Jun 6.5 04:45:59 10° N 04:50:27 23° NE 04:54:53 10° ESE visible
04 Jun 6.6 21:21:41 10° WSW 21:25:52 21° NW 21:30:05 10° N visible
05 Jun 6.4 04:32:07 10° N 04:36:31 23° NE 04:40:53 10° ESE visible
05 Jun 6.6 21:07:41 10° WSW 21:11:57 22° NW 21:16:14 10° N visible
06 Jun 6.4 04:18:16 10° N 04:22:35 22° NE 04:26:54 10° ESE visible
06 Jun 6.7 20:53:42 10° WSW 20:58:01 22° NW 21:02:22 10° N visible
07 Jun 6.4 04:04:24 10° N 04:08:39 21° NE 04:12:54 10° ESE visible
08 Jun 6.4 03:50:32 10° N 03:54:43 21° NE 03:58:55 10° ESE visible
